�N����,����,�~����,�C��,���x,�C��,����,���ϕ���,�ő�u�ԕ���,�ő厞����,���˗�,�I�_���x,�n�����x,�ő啗���N��,DTYPE
"23/03/18","00:10",0.4,8.1,93.0,1014.7,311.7,1.3,1.3,318.6,0.00,7.1,11.8,"00:01:32",1
"23/03/18","00:20",0.4,8.1,93.3,1014.7,323.2,1.3,1.6,321.0,0.00,7.1,11.5,"00:11:08",1
"23/03/18","00:30",0.4,8.0,93.6,1014.7,314.8,1.1,1.7,323.5,0.00,7.1,11.7,"00:20:02",1
"23/03/18","00:40",0.6,8.0,93.9,1014.7,314.7,1.3,1.8,308.2,0.00,7.1,11.7,"00:32:02",1
"23/03/18","00:50",0.2,8.0,94.2,1014.2,319.2,1.3,1.9,314.1,0.00,7.2,11.7,"00:48:20",1
"23/03/18","01:00",0.4,8.1,94.5,1014.0,323.2,1.5,1.9,322.7,0.00,7.3,11.5,"00:57:58",1
"23/03/18","01:10",0.2,8.0,94.7,1013.8,319.2,1.6,2.2,313.9,0.00,7.2,11.7,"01:05:54",1
"23/03/18","01:20",0.2,8.0,94.9,1013.5,301.8,1.2,1.7,331.7,0.00,7.3,11.4,"01:10:38",1
"23/03/18","01:30",0.4,8.0,95.2,1014.0,283.1,1.5,2.2,260.4,0.00,7.3,11.7,"01:28:58",1
"23/03/18","01:40",0.2,8.0,95.4,1013.5,293.8,1.6,2.2,316.0,0.00,7.4,11.8,"01:35:54",1
"23/03/18","01:50",0.2,8.0,95.6,1013.5,285.2,1.2,1.7,292.1,0.00,7.4,11.7,"01:46:34",1
"23/03/18","02:00",0.4,8.0,95.8,1013.3,286.7,1.2,1.7,263.8,0.00,7.4,11.7,"01:51:08",1
"23/03/18","02:10",0.4,8.1,96.0,1013.5,313.6,1.6,2.4,307.3,0.00,7.5,11.6,"02:06:26",1
"23/03/18","02:20",0.2,8.1,96.1,1012.8,318.9,1.1,1.7,324.7,0.00,7.6,11.5,"02:11:48",1
"23/03/18","02:30",0.4,8.0,96.2,1012.8,322.4,1.1,1.3,311.8,0.00,7.5,11.5,"02:24:02",1
"23/03/18","02:40",0.6,8.0,96.4,1012.6,314.3,0.5,1.1,317.3,0.00,7.5,11.5,"02:33:04",1
"23/03/18","02:50",0.4,8.1,96.4,1012.3,253.6,0.3,1.0,273.6,0.00,7.6,11.5,"02:47:00",1
"23/03/18","03:00",0.6,8.0,96.6,1012.3,272.1,1.0,1.4,257.5,0.00,7.5,11.5,"02:59:24",1
"23/03/18","03:10",0.4,8.1,96.7,1012.1,274.4,1.5,1.9,267.5,0.00,7.6,11.5,"03:05:58",1
"23/03/18","03:20",0.4,8.0,96.8,1012.1,281.3,1.3,1.8,272.2,0.00,7.6,11.5,"03:14:32",1
"23/03/18","03:30",0.4,8.0,97.0,1011.6,291.0,1.3,2.4,296.8,0.00,7.6,11.4,"03:20:02",1
"23/03/18","03:40",0.4,7.9,97.1,1011.9,304.9,1.3,2.6,313.6,0.00,7.5,11.3,"03:30:10",1
"23/03/18","03:50",0.4,7.9,97.2,1011.6,288.1,1.2,1.7,263.6,0.00,7.5,11.3,"03:48:00",1
"23/03/18","04:00",0.4,7.9,97.3,1011.4,284.8,1.5,1.8,308.0,0.00,7.5,11.2,"03:55:28",1
"23/03/18","04:10",0.4,7.9,97.4,1011.6,282.1,1.6,2.1,302.4,0.00,7.6,11.3,"04:09:52",1
"23/03/18","04:20",0.4,7.8,97.5,1011.9,298.2,1.8,2.6,303.1,0.00,7.5,11.3,"04:12:32",1
"23/03/18","04:30",0.4,7.8,97.6,1011.2,305.1,2.1,2.5,311.2,0.00,7.5,11.1,"04:20:42",1
"23/03/18","04:40",0.4,7.8,97.7,1011.4,306.2,1.5,1.8,323.8,0.00,7.5,11.1,"04:33:58",1
"23/03/18","04:50",0.2,7.9,97.8,1011.2,284.7,1.3,1.7,304.9,0.00,7.6,11.2,"04:47:48",1
"23/03/18","05:00",0.4,7.9,97.9,1011.6,288.8,1.6,2.5,308.8,0.00,7.6,11.1,"04:54:44",1
"23/03/18","05:10",0.2,7.8,97.9,1011.4,293.4,1.8,2.4,322.7,0.00,7.5,11.2,"05:04:04",1
"23/03/18","05:20",0.4,7.7,98.1,1011.6,292.2,1.7,2.4,316.6,0.00,7.5,11.0,"05:19:20",1
"23/03/18","05:30",0.4,7.9,97.6,1011.6,302.2,2.0,3.9,314.7,0.00,7.6,11.2,"05:24:54",1
"23/03/18","05:40",0.4,7.6,98.2,1011.4,312.4,2.3,3.5,307.8,0.00,7.4,11.1,"05:32:22",1
"23/03/18","05:50",0.4,7.7,97.7,1011.6,324.6,2.1,2.7,311.3,0.00,7.4,11.0,"05:40:14",1
"23/03/18","06:00",0.4,7.7,98.2,1012.1,326.0,1.8,2.2,320.4,0.00,7.5,10.9,"05:54:56",1
"23/03/18","06:10",0.6,7.8,97.8,1011.4,311.0,2.0,2.6,302.0,0.00,7.5,11.0,"06:02:04",1
"23/03/18","06:20",0.6,7.6,98.3,1010.9,322.6,2.2,3.7,317.2,0.00,7.4,11.1,"06:18:28",1
"23/03/18","06:30",0.6,7.7,97.9,1011.2,318.7,2.2,3.1,312.6,0.00,7.4,10.8,"06:26:10",1
"23/03/18","06:40",0.6,7.6,98.4,1010.9,319.6,2.2,3.4,318.7,0.00,7.4,11.0,"06:34:28",1
"23/03/18","06:50",0.4,7.8,98.0,1011.2,317.3,1.6,2.5,335.8,0.00,7.5,10.8,"06:48:30",1
"23/03/18","07:00",0.6,7.8,98.0,1011.2,326.0,2.0,2.6,333.4,0.00,7.5,10.8,"06:50:22",1
"23/03/18","07:10",0.4,7.8,98.0,1010.9,325.2,1.7,2.5,338.3,0.00,7.5,10.7,"07:04:48",1
"23/03/18","07:20",0.4,7.7,98.0,1011.4,324.8,2.1,2.8,307.1,0.00,7.4,10.8,"07:13:46",1
"23/03/18","07:30",0.6,7.8,98.0,1011.2,325.4,2.0,2.9,312.4,0.00,7.5,10.7,"07:24:56",1
"23/03/18","07:40",0.4,7.8,98.1,1010.9,323.5,1.7,2.4,326.3,0.00,7.6,10.6,"07:32:38",1
"23/03/18","07:50",0.4,7.8,98.1,1011.2,292.2,1.6,2.7,318.2,0.00,7.6,10.6,"07:44:00",1
"23/03/18","08:00",0.4,7.9,98.1,1010.9,280.1,1.6,2.0,301.6,0.00,7.7,10.7,"07:57:10",1
"23/03/18","08:10",0.2,7.9,98.1,1010.7,279.0,1.7,2.7,263.1,0.00,7.7,10.4,"08:02:42",1
"23/03/18","08:20",0.2,7.9,98.1,1010.4,275.4,1.6,2.2,265.3,0.00,7.7,10.6,"08:13:42",1
"23/03/18","08:30",0.2,8.1,98.2,1010.4,266.5,1.6,2.4,254.9,0.05,7.9,10.6,"08:26:36",1
"23/03/18","08:40",0.2,8.3,98.2,1010.4,269.3,1.6,2.0,259.3,0.06,8.1,10.6,"08:30:08",1
"23/03/18","08:50",0.0,8.4,98.2,1010.2,259.0,1.5,2.6,247.5,0.07,8.2,10.6,"08:47:08",1
"23/03/18","09:00",0.2,8.6,98.1,1010.2,266.4,1.3,2.1,266.3,0.09,8.4,10.6,"08:59:00",1
"23/03/18","09:10",0.2,8.7,98.2,1010.4,284.8,1.6,2.0,305.9,0.11,8.5,10.6,"09:05:28",1
"23/03/18","09:20",0.0,8.6,98.2,1010.2,298.0,2.0,2.7,309.3,0.11,8.4,10.8,"09:16:06",1
"23/03/18","09:30",0.0,8.7,98.0,1009.7,298.9,2.0,2.8,319.3,0.13,8.4,10.7,"09:22:24",1
"23/03/18","09:40",0.0,8.8,98.1,1009.7,309.4,2.5,3.1,318.0,0.16,8.6,10.6,"09:39:14",1
"23/03/18","09:50",0.0,8.9,98.0,1010.0,315.5,2.7,3.7,325.4,0.16,8.6,10.7,"09:49:02",1
"23/03/18","10:00",0.2,9.0,98.0,1010.2,316.9,2.3,3.5,331.5,0.15,8.7,10.6,"09:51:04",1
"23/03/18","10:10",0.0,8.9,98.0,1010.2,314.1,2.6,3.6,327.6,0.18,8.6,10.7,"10:02:38",1
"23/03/18","10:20",0.0,9.0,97.8,1010.0,298.9,2.2,3.1,313.8,0.17,8.7,10.7,"10:15:04",1
"23/03/18","10:30",0.2,9.0,98.4,1010.0,301.4,1.8,2.5,309.4,0.17,8.8,10.7,"10:23:30",1
"23/03/18","10:40",0.0,9.2,97.8,1010.0,301.9,1.8,2.2,302.9,0.19,8.9,10.9,"10:31:14",1
"23/03/18","10:50",0.0,9.4,98.1,1009.7,307.1,1.7,2.0,311.8,0.18,9.2,10.8,"10:45:34",1
"23/03/18","11:00",0.2,9.4,97.3,1009.5,315.0,2.2,2.6,318.7,0.16,9.0,10.8,"10:51:08",1
"23/03/18","11:10",0.2,9.5,97.7,1009.3,328.2,2.0,2.8,347.9,0.24,9.2,10.9,"11:08:42",1
"23/03/18","11:20",0.0,9.6,97.0,1009.5,336.3,2.1,3.4,343.8,0.26,9.2,10.8,"11:19:02",1
"23/03/18","11:30",0.0,10.2,97.4,1009.5,327.1,1.8,3.3,338.3,0.28,9.8,10.6,"11:24:54",1
"23/03/18","11:40",0.0,10.2,96.6,1009.0,338.9,2.5,3.9,330.3,0.30,9.7,10.7,"11:37:28",1
"23/03/18","11:50",0.0,10.7,96.2,1008.8,329.3,2.1,4.0,350.6,0.51,10.2,10.9,"11:46:00",1
"23/03/18","12:00",0.0,11.9,94.7,1008.8,348.3,2.0,4.1,343.4,0.76,11.1,10.8,"11:52:06",1
"23/03/18","12:10",0.0,11.7,91.9,1008.8,332.1,2.7,5.2,348.0,0.47,10.5,11.2,"12:07:12",1
"23/03/18","12:20",0.0,11.5,89.6,1008.6,340.4,3.4,6.6,351.0,0.32,9.9,11.1,"12:12:44",1
"23/03/18","12:30",0.0,11.2,86.8,1008.6,339.0,4.0,6.0,340.3,0.34,9.1,11.2,"12:26:30",1
"23/03/18","12:40",0.0,11.4,85.2,1008.1,343.7,4.5,8.0,344.1,0.41,9.0,11.3,"12:32:20",1
"23/03/18","12:50",0.0,11.6,84.1,1007.8,342.4,3.9,7.1,328.2,0.35,9.0,11.1,"12:42:24",1
"23/03/18","13:00",0.0,11.6,82.7,1007.8,351.6,2.8,5.1,344.1,0.23,8.8,11.3,"12:53:42",1
"23/03/18","13:10",0.0,11.8,81.6,1007.8,345.1,2.3,6.2,334.7,0.28,8.8,11.3,"13:07:16",1
"23/03/18","13:20",0.0,11.8,80.4,1007.6,344.9,3.5,7.3,340.0,0.25,8.6,11.4,"13:19:46",1
"23/03/18","13:30",0.0,12.0,79.8,1007.1,341.4,3.1,5.7,331.4,0.24,8.7,11.5,"13:29:12",1
"23/03/18","13:40",0.0,12.2,78.7,1007.1,334.7,3.4,5.9,337.1,0.32,8.7,11.5,"13:36:40",1
"23/03/18","13:50",0.0,13.2,76.3,1006.9,334.1,2.2,5.0,337.3,0.52,9.2,11.5,"13:41:20",1
"23/03/18","14:00",0.0,12.9,74.2,1006.7,342.2,3.2,6.5,351.9,0.29,8.5,11.6,"13:54:00",1
"23/03/18","14:10",0.0,13.3,73.8,1006.7,3.4,1.7,4.4,2.7,0.26,8.8,11.6,"14:04:56",1
"23/03/18","14:20",0.0,12.7,73.0,1006.7,326.5,2.8,8.3,315.2,0.17,8.0,11.8,"14:19:04",1
"23/03/18","14:30",0.0,12.6,73.3,1006.7,336.0,3.2,6.6,332.6,0.17,8.0,11.7,"14:22:48",1
"23/03/18","14:40",0.0,11.9,73.5,1006.4,338.8,3.5,6.3,319.4,0.12,7.4,11.5,"14:37:44",1
"23/03/18","14:50",0.0,12.3,73.5,1006.2,317.6,3.2,5.5,351.0,0.23,7.7,11.9,"14:41:40",1
"23/03/18","15:00",0.0,12.9,72.8,1006.4,329.9,1.8,4.2,346.5,0.22,8.2,11.7,"14:51:04",1
"23/03/18","15:10",0.0,12.9,71.4,1006.0,328.0,2.7,5.8,350.1,0.20,7.9,11.8,"15:06:00",1
"23/03/18","15:20",0.0,12.3,71.8,1006.7,343.5,3.7,7.1,338.2,0.14,7.4,12.0,"15:13:50",1
"23/03/18","15:30",0.0,11.7,72.8,1006.9,348.6,4.2,7.3,347.1,0.13,7.0,12.0,"15:21:10",1
"23/03/18","15:40",0.0,11.4,74.0,1006.7,344.9,4.6,8.1,334.2,0.08,7.0,11.8,"15:35:30",1
"23/03/18","15:50",0.0,10.9,75.3,1006.7,348.5,3.7,7.2,344.9,0.05,6.7,12.0,"15:41:36",1
"23/03/18","16:00",0.0,10.6,76.9,1006.4,331.5,4.0,7.0,332.7,0.05,6.8,12.0,"15:57:30",1
"23/03/18","16:10",0.0,10.5,77.6,1006.7,319.7,4.5,7.1,330.7,0.06,6.8,11.9,"16:05:44",1
"23/03/18","16:20",0.0,10.3,77.7,1006.9,309.1,3.7,7.1,318.4,0.04,6.6,12.0,"16:19:38",1
"23/03/18","16:30",0.0,10.4,78.0,1006.9,320.8,3.9,8.0,312.5,0.07,6.8,12.1,"16:20:24",1
"23/03/18","16:40",0.0,10.2,78.1,1006.9,319.8,4.1,6.7,343.2,0.03,6.6,11.9,"16:37:44",1
"23/03/18","16:50",0.0,10.1,78.7,1006.9,339.3,3.0,5.6,347.0,0.01,6.6,12.0,"16:42:42",1
"23/03/18","17:00",0.0,10.1,79.2,1007.1,338.7,3.5,6.2,308.5,0.02,6.7,11.9,"16:58:22",1
"23/03/18","17:10",0.0,10.1,79.6,1006.7,332.8,3.7,7.5,337.8,0.02,6.8,11.9,"17:09:44",1
"23/03/18","17:20",0.0,10.0,79.3,1007.1,321.6,4.6,7.4,316.5,0.01,6.6,11.9,"17:10:24",1
"23/03/18","17:30",0.0,10.0,78.8,1007.4,332.2,4.2,7.5,339.9,0.01,6.5,11.9,"17:22:10",1
"23/03/18","17:40",0.0,10.1,77.7,1007.1,310.5,3.6,6.6,332.5,0.03,6.4,11.9,"17:31:04",1
"23/03/18","17:50",0.0,10.2,76.5,1007.6,324.7,4.0,6.4,336.4,0.01,6.3,11.9,"17:41:20",1
"23/03/18","18:00",0.0,10.2,75.8,1007.6,308.6,4.4,8.2,286.6,0.02,6.2,11.9,"17:59:52",1
"23/03/18","18:10",0.0,10.2,75.1,1007.8,322.5,4.2,8.0,300.2,0.02,6.0,11.8,"18:01:44",1
"23/03/18","18:20",0.0,10.1,74.1,1007.6,316.6,4.1,6.3,322.1,0.01,5.7,11.7,"18:13:20",1
"23/03/18","18:30",0.0,10.0,73.7,1008.1,304.1,3.7,5.6,348.2,0.00,5.6,11.8,"18:21:36",1
"23/03/18","18:40",0.0,9.9,74.1,1008.3,319.2,4.9,7.4,300.8,0.00,5.5,11.6,"18:39:12",1
"23/03/18","18:50",0.0,9.7,73.1,1008.1,332.9,6.2,10.1,335.6,0.00,5.2,11.8,"18:43:44",1
"23/03/18","19:00",0.0,9.5,72.8,1008.1,335.9,5.7,8.6,306.0,0.00,4.9,11.8,"18:56:40",1
"23/03/18","19:10",0.0,9.3,72.6,1008.6,333.4,5.0,8.6,332.2,0.00,4.7,11.8,"19:00:56",1
"23/03/18","19:20",0.0,9.2,72.8,1008.3,325.1,4.9,8.0,328.8,0.00,4.6,11.6,"19:13:20",1
"23/03/18","19:30",0.0,9.1,72.3,1008.6,333.1,5.0,8.7,337.5,0.00,4.4,11.7,"19:29:46",1
"23/03/18","19:40",0.0,9.0,72.0,1008.8,326.0,5.4,7.7,320.3,0.00,4.3,11.6,"19:38:48",1
"23/03/18","19:50",0.0,8.8,72.3,1009.0,328.8,4.5,8.5,330.9,0.00,4.1,11.5,"19:42:16",1
"23/03/18","20:00",0.0,8.7,72.9,1009.0,324.6,4.4,6.8,336.1,0.00,4.2,11.4,"19:53:44",1
"23/03/18","20:10",0.0,8.4,73.7,1009.3,327.7,3.4,5.7,337.2,0.00,4.0,11.7,"20:00:40",1
"23/03/18","20:20",0.0,8.1,75.4,1009.5,326.9,3.0,4.0,337.2,0.00,4.1,11.5,"20:13:04",1
"23/03/18","20:30",0.0,8.1,76.0,1009.5,324.2,4.1,6.6,334.5,0.00,4.2,11.5,"20:24:16",1
"23/03/18","20:40",0.0,8.0,76.2,1009.7,319.8,4.0,5.4,330.5,0.00,4.1,11.2,"20:34:48",1
"23/03/18","20:50",0.0,7.9,76.1,1009.5,323.8,4.0,5.6,334.2,0.00,4.0,11.3,"20:44:08",1
"23/03/18","21:00",0.0,7.8,76.3,1009.7,319.5,4.2,5.5,322.6,0.00,3.9,11.3,"20:50:16",1
"23/03/18","21:10",0.0,7.6,77.1,1009.5,326.1,4.2,6.4,330.4,0.00,3.9,11.3,"21:08:56",1
"23/03/18","21:20",0.0,7.7,77.3,1009.7,325.7,5.1,9.6,344.3,0.00,4.0,11.2,"21:19:36",1
"23/03/18","21:30",0.0,7.9,76.5,1009.7,327.6,5.1,6.5,308.3,0.00,4.1,11.1,"21:23:44",1
"23/03/18","21:40",0.0,7.8,76.5,1010.0,325.1,4.1,6.0,325.6,0.00,4.0,11.1,"21:38:08",1
"23/03/18","21:50",0.0,7.8,77.0,1010.0,330.4,3.6,6.4,332.8,0.00,4.1,11.2,"21:45:20",1
"23/03/18","22:00",0.0,7.6,77.5,1010.0,319.5,2.8,4.4,337.2,0.00,4.0,11.0,"21:50:08",1
"23/03/18","22:10",0.0,7.4,78.1,1010.0,320.0,3.0,4.4,324.1,0.00,3.9,11.2,"22:03:44",1
"23/03/18","22:20",0.0,7.4,78.7,1010.4,326.1,3.1,4.4,338.8,0.00,4.0,11.0,"22:18:48",1
"23/03/18","22:30",0.0,7.3,79.2,1010.4,323.5,3.1,5.2,309.3,0.00,4.0,11.1,"22:26:40",1
"23/03/18","22:40",0.0,7.2,79.8,1010.4,322.3,2.8,4.8,316.5,0.00,4.0,11.1,"22:31:52",1
"23/03/18","22:50",0.0,6.9,80.7,1010.7,322.0,1.5,2.2,351.2,0.00,3.9,10.8,"22:44:08",1
"23/03/18","23:00",0.0,6.5,81.8,1010.4,319.3,1.3,2.5,346.7,0.00,3.7,11.1,"22:56:40",1
"23/03/18","23:10",0.0,6.3,83.1,1010.7,325.9,2.1,2.6,324.9,0.00,3.7,10.9,"23:00:48",1
"23/03/18","23:20",0.0,6.4,84.2,1010.4,324.2,2.6,3.3,338.8,0.00,4.0,11.0,"23:12:56",1
"23/03/18","23:30",0.0,6.1,84.9,1010.7,314.1,2.0,2.6,331.1,0.00,3.8,10.8,"23:22:00",1
"23/03/18","23:40",0.0,5.9,85.7,1010.7,316.0,1.3,3.7,316.6,0.00,3.7,10.9,"23:30:16",1
"23/03/18","23:50",0.0,6.1,86.6,1011.2,325.4,2.3,4.3,318.9,0.00,4.1,10.7,"23:49:10",1
"23/03/18","24:00",0.0,6.5,86.9,1010.9,321.7,3.5,5.0,323.9,0.00,4.5,10.7,"23:55:36",1
